RH
58 34 34 29 31 37 38 26 23 23 23 19 18 20 21 23 24 30 37 33 51 75 92 95 94 91 89 89 87 88 88 86 84 85 90 92 91 91 92 92 90 85 78 77 78 79 79 79 82
43 25 25 29 37 42 30 22 24 20 17 19 18 21 27 29 30 40 36 45 47 73 90 94 95 92 90 90 88 88 87 88 89 86 88 89 90 89 89 91 91 87 80 77 77 77 79 82 85
33 28 25 34 41 39 28 21 18 16 17 18 19 22 24 27 31 33 38 47 60 72 85 90 95 94 91 91 89 88 88 90 91 90 87 88 88 89 88 90 90 89 81 77 76 77 81 88 86
28 24 26 30 34 27 22 21 20 17 14 15 18 24 24 26 28 32 40 46 60 72 82 94 96 94 92 91 89 88 89 91 92 91 89 88 87 88 93 92 91 90 84 78 78 82 89 89 87
30 27 30 33 31 23 18 16 17 16 17 15 17 33 33 30 33 37 40 43 55 69 80 96 96 95 93 91 90 88 88 90 92 91 91 91 91 92 94 92 92 92 90 87 86 88 90 90 88
15 22 23 25 19 19 18 16 16 15 17 14 16 33 35 33 33 38 38 43 49 63 86 92 95 95 94 93 91 91 89 90 91 90 90 92 92 94 93 93 92 92 92 92 91 91 90 90 89
18 22 25 22 20 20 16 16 15 14 15 14 16 39 38 33 31 35 36 41 47 54 77 86 96 96 96 96 94 94 91 91 92 91 90 91 93 94 93 93 92 92 93 93 92 94 93 91 89
18 21 23 21 20 23 15 14 15 12 13 12 17 37 42 30 32 36 41 42 44 54 63 78 86 94 96 97 97 95 93 92 92 92 92 92 92 92 93 93 92 92 92 93 93 94 95 95 93
19 23 24 22 21 18 15 14 12 12 12 14 16 26 34 31 33 40 48 55 62 56 61 70 79 83 91 94 94 96 95 94 94 93 93 94 90 91 91 91 92 92 92 93 93 94 95 95 94
20 26 24 17 19 18 15 15 15 12 12 14 15 16 14 14 26 28 32 46 55 60 62 71 74 80 88 74 91 97 96 95 95 94 94 93 93 93 85 90 94 92 92 93 94 94 96 96 95
16 21 19 16 18 18 16 13 15 16 14 16 19 18 13 15 25 31 38 43 50 51 54 66 72 75 82 75 88 99 99 96 95 97 97 96 92 95 91 92 92 93 92 91 92 93 94 96 93
18 18 17 14 16 16 15 15 13 17 12 12 13 16 13 24 32 40 42 52 53 54 54 57 66 73 74 87 93 95 98 94 95 96 97 97 96 95 91 88 85 86 83 89 88 86 87 93 94
22 18 16 15 15 14 15 15 14 12 12 12 13 12 25 34 41 44 49 52 54 57 58 62 60 77 69 71 90 95 98 97 89 85 90 91 91 88 88 81 82 81 80 80 83 83 85 86 91
19 19 19 17 17 17 16 15 14 12 14 15 12 28 35 42 45 42 42 48 46 48 52 66 65 69 73 84 93 95 96 96 96 93 84 83 78 78 80 76 74 77 74 76 78 78 78 78 77
21 22 20 19 19 18 15 16 17 17 14 15 19 32 41 42 40 42 40 40 38 39 38 51 63 81 84 87 88 92 94 93 93 92 87 86 87 80 77 73 70 66 69 72 76 75 73 73 69
24 26 28 20 16 16 16 22 18 16 14 14 24 40 41 38 36 37 36 36 36 32 29 38 43 80 85 86 86 88 90 95 95 96 92 88 87 86 88 86 74 65 67 73 72 75 76 73 70
30 33 27 18 16 20 19 25 17 16 14 14 31 41 35 34 34 34 32 33 35 32 28 32 52 77 83 82 82 84 85 92 94 95 96 98 97 92 91 91 84 86 81 72 72 72 72 73 71
31 25 24 23 17 18 19 18 15 13 14 24 37 36 34 34 37 32 33 30 32 29 29 30 54 78 76 74 72 74 78 86 88 90 89 86 93 95 94 87 89 90 89 89 80 83 75 70 69
20 22 25 22 18 20 21 19 16 15 26 37 35 36 38 34 30 29 29 30 34 33 33 34 57 85 78 74 74 68 76 83 84 78 80 84 85 88 93 85 75 77 76 82 85 88 86 76 70
22 24 25 22 19 21 23 20 18 25 36 35 33 31 30 29 28 29 32 35 39 43 37 38 50 92 85 78 76 84 77 81 83 79 79 79 84 88 92 94 90 86 81 78 78 78 84 82 74
26 24 28 30 26 26 18 18 37 32 30 27 29 30 31 34 33 31 31 38 39 46 46 42 44 91 89 83 75 73 73 75 77 79 80 79 81 86 90 90 91 96 94 84 86 86 81 80 82
23 19 22 26 31 41 18 23 23 35 33 32 34 37 33 31 28 32 34 34 38 42 45 44 45 92 81 88 85 91 92 85 79 82 79 80 84 84 83 88 90 92 97 97 93 89 90 88 84
22 18 24 25 32 21 18 21 33 35 39 39 37 34 28 25 30 29 31 32 34 42 49 49 51 93 94 95 95 92 80 80 77 80 83 85 86 85 85 86 90 92 94 95 97 95 93 94 90
15 17 20 25 24 29 22 22 54 50 42 35 31 34 26 20 24 27 30 32 36 46 52 54 64 79 88 92 91 93 81 84 81 86 89 92 90 90 89 86 91 90 90 93 95 97 96 93 94
17 27 37 27 37 29 19 32 50 40 25 29 26 22 23 23 25 25 27 33 42 54 65 65 75 85 88 89 88 89 91 88 87 89 92 93 93 94 93 92 92 92 90 92 93 94 96 98 96
21 24 41 31 38 34 23 42 54 23 22 21 19 24 21 24 26 28 33 41 46 61 79 82 82 87 89 87 91 90 89 91 88 91 92 93 94 94 91 91 91 90 90 89 89 94 96 96 97
18 27 22 28 42 38 32 24 39 22 22 22 20 20 28 31 31 33 46 44 51 74 89 89 78 85 93 92 93 89 88 89 91 91 92 94 93 91 90 90 90 89 90 90 90 93 94 94 96
21 18 27 35 39 42 38 33 28 26 24 23 32 33 30 26 24 36 40 45 54 78 89 83 77 88 96 78 83 86 88 88 89 90 93 93 94 91 89 88 88 88 88 88 90 92 89 91 95
23 30 36 34 49 51 67 50 28 27 35 49 48 44 38 32 27 44 43 43 58 78 85 84 86 88 91 78 81 88 90 90 92 96 96 97 97 97 91 89 89 90 90 88 89 90 89 90 92
25 32 34 50 45 47 56 44 26 38 48 48 52 49 46 45 48 49 45 47 68 79 82 86 86 77 85 87 89 93 93 87 91 95 96 97 98 100 96 89 91 92 93 94 91 92 90 91 93
Wind_Speed
7 7 3 4 5 6 5 3 2 2 1 4 4 6 7 3 5 5 4 12 14 16 14 14 16 17 16 15 14 13 12 12 10 9 7 8 9 9 9 10 11 10 11 11 10 10 9 8 8
4 5 4 3 6 4 6 5 1 3 4 3 7 7 1 1 2 4 5 6 18 17 13 14 17 17 17 15 15 13 12 13 12 11 11 10 10 9 9 9 8 9 10 11 10 10 9 8 6
4 2 4 4 3 2 4 5 5 5 2 2 4 2 6 6 2 9 3 14 13 14 13 13 18 17 18 17 15 14 13 11 12 12 12 12 11 11 10 9 9 8 10 11 10 9 9 8 7
2 5 5 5 5 7 5 2 2 2 7 8 3 5 5 2 6 7 13 15 14 12 11 15 19 18 18 18 18 16 14 12 11 11 11 12 13 12 10 10 10 9 9 11 11 10 8 7 7
4 3 4 3 6 4 6 4 5 4 3 6 4 2 3 4 8 14 14 14 12 10 9 13 17 18 19 19 18 18 17 16 14 14 13 13 13 12 12 11 11 10 11 11 10 10 10 10 10
4 4 5 5 5 4 4 6 4 6 3 7 6 5 1 3 8 8 10 11 11 14 10 11 16 17 18 19 19 18 18 17 17 17 16 15 15 14 14 13 12 13 13 12 12 12 12 12 11
5 5 2 4 7 8 8 7 10 9 10 11 2 4 2 3 7 12 13 11 12 12 13 13 15 16 18 18 18 18 19 19 19 18 18 17 16 15 14 14 15 15 14 14 14 13 13 13 13
6 5 3 2 4 3 8 6 2 7 6 8 4 4 2 6 9 7 8 9 10 12 13 13 13 13 16 16 20 20 19 18 18 18 18 18 17 18 18 17 17 17 16 16 15 14 13 14 13
4 5 2 3 3 5 7 9 10 3 4 5 5 5 2 3 3 3 4 2 2 6 8 8 12 12 8 6 10 16 18 18 17 16 17 14 10 12 14 16 17 18 17 17 16 15 14 13 13
5 5 3 2 0 1 4 5 5 6 9 4 3 3 2 6 6 9 8 6 6 7 4 7 8 5 4 7 6 8 7 8 9 11 11 10 10 9 11 13 17 18 18 17 17 16 14 12 7
5 2 3 4 3 1 5 8 4 2 5 4 2 2 4 14 18 12 16 18 15 5 6 1 3 3 5 5 2 3 3 5 7 10 9 9 7 6 7 5 7 8 14 8 11 10 9 11 9
4 3 1 6 7 7 7 5 6 3 7 5 6 2 7 16 17 16 14 14 18 15 13 14 10 7 7 4 4 3 4 5 5 7 9 7 6 7 7 7 8 8 8 10 9 8 11 12 12
2 6 10 12 11 12 4 4 5 6 10 7 3 8 17 15 14 14 12 14 14 15 13 17 18 10 6 4 4 4 4 4 6 6 9 10 9 10 8 8 8 8 8 9 10 10 9 11 12
4 8 10 8 10 5 3 5 4 6 7 11 8 18 14 12 10 12 12 11 14 13 13 12 17 14 13 11 7 5 4 7 6 7 9 12 11 10 10 10 10 10 10 9 10 10 10 10 10
4 5 9 5 4 4 2 8 3 6 8 7 11 11 14 13 14 14 11 13 11 10 11 14 13 11 14 12 11 8 7 8 9 10 10 12 13 13 13 11 11 12 10 13 10 11 10 10 10
6 5 6 7 9 5 5 5 6 9 8 8 11 12 13 13 12 12 12 13 11 12 14 13 12 13 13 12 10 9 10 9 8 6 9 12 13 14 12 11 13 12 10 10 11 11 11 12 11
7 2 3 10 5 3 6 3 10 11 8 8 10 12 13 12 14 14 16 16 15 15 14 15 17 17 14 12 10 10 11 8 8 9 8 3 10 15 14 12 13 8 9 11 11 12 12 11 11
4 4 5 4 8 8 10 12 11 12 9 8 14 14 12 13 11 13 12 12 12 13 16 17 13 12 11 9 9 9 9 9 8 7 10 15 12 19 11 14 15 9 10 11 11 13 11 12 13
2 4 3 5 4 8 7 11 16 15 10 16 14 12 9 10 7 9 10 9 10 10 14 14 12 9 9 8 10 11 12 11 11 9 10 11 14 14 14 12 16 13 14 15 15 13 13 11 11
8 6 6 6 6 5 10 13 10 10 9 12 12 11 11 11 9 8 8 9 9 8 8 10 8 8 7 7 7 4 7 6 8 11 13 13 13 15 13 12 15 14 11 16 16 15 14 14 11
4 5 4 3 9 4 6 10 8 8 15 16 14 11 9 8 8 9 9 7 5 7 7 9 8 7 8 10 8 8 5 6 8 12 12 16 15 14 13 15 11 11 13 12 16 15 18 15 12
4 6 6 6 6 2 4 3 8 9 14 13 9 11 11 10 8 6 6 8 8 8 9 9 8 7 9 8 9 10 8 11 10 10 11 12 16 16 15 16 16 13 6 10 12 14 13 14 16
5 6 3 3 4 3 8 6 9 11 11 7 8 10 10 11 8 10 9 8 6 8 7 7 8 6 6 6 6 7 14 11 11 10 15 14 12 13 15 17 15 14 10 9 8 14 14 12 15
6 5 6 4 4 3 2 5 7 4 4 6 12 9 9 10 8 8 7 7 7 8 9 9 8 8 9 9 12 12 14 12 14 12 11 10 10 11 13 16 13 14 13 11 10 8 13 16 14
11 7 6 7 6 4 7 6 5 2 8 11 9 10 10 10 9 10 10 8 6 7 7 8 11 12 12 12 14 14 12 12 12 11 9 12 11 10 13 15 13 12 14 14 12 9 9 10 12
3 3 5 2 3 5 9 6 6 6 7 5 4 3 6 7 7 8 6 5 4 6 8 9 9 10 11 12 12 11 11 7 8 9 8 8 9 10 13 13 12 14 14 14 14 11 10 9 10
5 4 3 2 3 3 3 4 1 12 10 8 11 11 6 6 7 5 1 4 5 7 6 6 7 7 9 11 10 11 10 11 9 11 11 9 11 12 12 12 12 13 15 15 14 12 15 14 14
2 2 5 4 2 5 3 2 5 14 16 20 20 19 19 16 13 5 4 3 5 5 5 6 7 8 6 12 11 9 9 10 11 11 14 13 13 14 14 13 13 14 14 15 13 13 14 16 14
4 5 4 3 4 4 5 5 3 14 17 15 17 18 21 22 14 9 8 7 5 6 6 7 8 10 9 11 11 10 10 12 12 13 13 12 13 14 15 13 14 15 14 14 15 16 15 19 18
7 4 4 5 5 1 4 9 7 16 13 14 14 16 18 17 17 16 14 7 7 7 8 9 10 13 12 11 10 11 12 13 14 13 14 15 14 11 14 14 14 15 16 16 15 16 16 17 21
Wind_Direction
295 305 119 37 47 54 311 258 255 178 200 226 117 132 155 173 156 199 320 159 133 153 160 166 165 161 161 159 159 161 163 160 158 154 143 136 137 135 135 139 143 149 150 152 154 151 145 139 128
324 332 50 91 81 42 282 249 129 263 227 178 99 120 109 66 78 105 99 171 152 153 160 164 166 165 163 163 162 166 172 168 165 169 167 163 160 154 153 152 155 159 162 165 167 164 158 155 153
313 30 74 82 74 242 244 294 25 331 359 90 123 134 134 136 2 162 162 145 146 154 163 166 166 168 166 166 167 170 175 177 172 176 178 177 175 173 170 167 167 171 174 176 180 181 175 169 173
81 3 24 75 274 271 224 305 2 22 35 20 356 69 58 307 164 172 141 143 151 159 166 167 167 171 170 172 172 175 178 178 179 180 185 188 187 185 181 178 180 182 188 190 188 187 181 189 196
37 54 48 347 265 271 296 19 22 37 32 12 20 10 43 356 93 129 142 149 155 163 168 169 172 174 176 178 180 180 180 181 182 182 188 194 193 191 188 188 188 190 193 199 200 189 189 196 204
32 88 42 330 317 322 326 359 13 14 27 320 78 126 143 346 107 158 151 160 164 162 162 174 179 181 184 184 184 185 185 185 186 186 189 193 196 195 193 195 196 196 199 199 201 198 196 202 209
106 78 193 305 327 27 349 348 25 343 351 348 168 74 42 268 170 164 173 165 169 173 169 177 181 188 188 191 190 191 190 189 189 191 192 194 193 196 200 202 201 203 205 206 203 202 203 208 210
105 93 14 298 317 23 327 357 6 37 344 306 46 95 197 237 206 168 161 172 175 178 181 185 189 195 191 190 192 193 194 195 196 196 195 197 198 197 200 202 206 205 206 210 211 208 206 211 214
104 62 319 293 49 292 322 19 332 255 89 25 7 96 197 124 100 101 106 96 159 226 205 199 189 196 208 231 210 197 198 200 200 203 204 200 205 210 209 207 206 208 209 211 212 215 213 212 218
76 99 251 7 310 310 303 350 332 23 350 359 10 21 349 76 33 23 351 357 319 286 301 352 342 306 213 203 206 215 217 216 211 210 208 209 211 207 209 216 209 210 212 212 215 215 213 216 222
338 38 289 267 237 46 330 342 286 318 322 218 281 272 15 58 75 84 63 60 46 29 44 17 247 264 284 278 186 204 228 219 222 224 210 211 210 213 214 213 216 220 219 220 218 221 221 216 212
358 326 7 289 334 347 320 303 338 290 253 247 219 92 42 74 73 75 73 60 52 49 47 34 351 202 186 228 274 242 261 241 232 224 217 219 213 212 213 214 215 214 211 217 217 218 220 219 218
66 328 326 330 328 309 258 202 243 282 331 315 19 29 83 76 76 75 78 76 64 50 38 33 28 28 44 4 349 310 293 276 266 247 227 214 217 215 206 219 211 215 212 212 212 217 217 224 223
332 311 298 302 305 295 316 288 130 9 352 27 14 70 71 71 77 83 64 67 63 58 42 56 36 37 46 33 347 293 240 234 242 251 245 233 237 233 218 210 215 215 213 212 214 213 216 223 221
280 327 327 326 326 345 347 12 47 354 10 30 55 86 70 62 62 63 68 65 59 56 52 46 47 36 37 30 15 1 339 297 242 239 244 237 241 245 239 229 220 220 212 213 213 216 219 224 223
332 51 358 307 5 359 70 291 327 329 11 11 91 88 81 63 63 65 61 63 55 50 45 53 38 53 36 26 13 1 356 338 333 279 258 249 249 248 246 247 241 222 220 207 209 211 215 223 221
11 335 324 319 79 334 46 305 300 306 343 30 105 92 81 68 53 52 52 49 41 40 34 35 35 35 29 23 10 1 350 349 338 328 336 259 269 256 244 245 251 245 234 217 217 218 217 216 223
310 343 316 315 325 11 1 318 310 317 358 73 96 89 80 70 51 55 50 49 50 45 42 38 45 34 25 17 6 0 352 346 359 356 352 336 314 271 231 241 244 231 222 231 231 228 217 222 223
2 40 347 296 341 26 330 316 312 319 60 78 82 79 71 64 57 61 55 51 55 39 45 39 39 21 20 15 13 1 350 339 340 349 349 342 342 329 326 294 257 233 227 225 218 223 226 226 230
60 51 344 294 321 22 324 307 338 38 54 77 83 72 69 67 55 52 41 30 35 33 39 35 40 36 19 10 3 2 338 334 322 341 344 352 344 343 324 334 334 284 240 236 227 219 219 230 202
357 50 337 265 333 35 11 342 46 46 64 62 55 70 63 63 41 26 35 23 27 35 31 35 28 31 25 13 5 354 340 338 342 348 347 344 346 341 344 329 318 335 310 247 236 233 220 227 224
345 339 314 327 7 318 54 278 16 32 55 51 46 45 39 31 31 29 6 18 21 13 26 19 17 33 30 14 13 5 353 346 338 337 336 339 345 339 344 341 328 328 311 347 306 254 237 233 235
256 317 281 232 190 57 351 81 313 57 47 26 37 47 26 21 10 358 1 353 23 18 8 3 23 33 11 10 13 2 2 351 344 345 337 339 342 344 346 345 336 333 332 317 305 316 245 241 248
286 331 6 44 102 68 305 126 315 8 6 14 38 18 7 5 357 350 338 343 20 10 15 21 17 12 3 7 13 9 358 349 345 350 346 341 342 340 349 346 346 341 337 337 325 316 301 252 233
31 33 358 5 11 219 307 70 174 134 53 49 21 2 354 357 3 356 356 20 42 30 24 27 22 18 13 11 9 358 357 359 347 347 350 347 340 346 345 340 353 353 350 343 340 6 351 7 303
336 99 127 280 276 258 299 138 188 116 107 63 50 319 342 355 327 331 343 104 102 69 43 37 26 17 10 6 0 358 12 354 353 352 358 353 345 336 343 346 357 2 360 7 6 360 2 14 9
315 46 181 188 321 9 260 34 230 6 32 13 0 9 347 289 287 292 115 128 107 80 66 49 27 16 18 10 360 16 9 4 5 0 7 357 0 339 349 347 1 12 22 13 17 21 20 12 25
102 255 20 8 321 295 262 289 254 358 346 15 20 6 348 328 329 308 330 32 74 95 78 48 29 19 7 19 14 11 15 12 11 11 15 1 13 348 354 357 8 20 25 28 29 32 28 42 32
6 7 22 107 135 195 309 240 78 12 36 23 9 4 359 347 341 5 342 2 68 52 44 33 31 20 24 20 18 21 16 22 18 20 14 360 7 352 9 359 13 11 20 26 33 37 28 36 40
101 98 69 96 297 245 176 274 76 56 37 26 13 6 8 16 8 359 354 13 45 20 33 32 27 26 28 37 37 26 23 30 33 24 23 8 13 354 7 8 20 22 23 22 39 37 38 34 39